Theta_e
363 362 361 360 360 361 363 363 362 362 363 362 361 362 363 365 367 367 368 369 368 368 369 370 370 369 367 368 369 369 369 367 368 367 368 365 363 361 358 360 361 362
362 363 363 362 363 364 364 364 364 364 365 366 364 365 367 367 367 367 369 368 369 368 370 368 369 370 369 366 368 367 368 369 367 365 367 366 364 363 360 361 360 364
362 362 361 360 359 360 358 362 365 364 363 363 366 368 366 367 367 369 369 368 368 367 369 369 369 370 368 369 370 368 366 369 366 365 369 366 364 363 364 359 360 361
363 362 360 359 360 360 361 362 363 364 364 364 364 364 365 363 367 367 369 370 369 368 368 368 368 367 368 368 370 368 367 369 367 369 368 368 367 364 363 364 362 362
361 361 361 361 361 363 364 361 360 361 362 363 363 366 367 369 368 366 367 368 370 367 368 368 368 367 369 369 370 367 366 365 367 371 368 367 369 367 364 364 365 362
363 364 364 362 363 363 361 361 362 362 362 362 363 364 365 366 366 365 365 364 364 364 363 364 365 365 366 367 369 368 366 363 365 369 367 366 365 366 363 364 365 364
359 362 361 362 361 362 362 363 363 364 362 363 366 364 366 364 365 367 367 366 364 365 363 365 367 366 367 369 369 369 369 369 368 369 366 365 367 367 367 367 367 365
358 359 361 362 359 361 360 361 362 363 365 366 363 365 366 364 366 365 367 366 365 365 367 366 368 370 365 366 367 367 367 364 366 369 368 366 366 366 367 365 366 365
358 358 359 359 357 357 356 356 359 361 365 364 362 362 366 366 365 365 368 368 366 367 369 368 369 368 368 368 367 368 367 364 363 366 366 365 364 366 365 366 365 365
357 357 355 355 354 355 355 355 356 358 362 362 361 361 362 367 367 366 368 370 367 368 369 369 369 369 368 368 368 368 367 367 368 367 366 365 365 365 364 365 363 363
356 356 356 356 355 355 355 355 356 356 359 359 359 359 361 363 367 368 368 369 365 366 368 369 368 369 369 367 367 368 368 366 367 368 367 367 367 367 366 367 366 364
357 357 356 357 357 357 356 357 357 357 357 358 359 359 361 360 362 363 364 366 366 366 367 369 370 370 370 369 367 367 368 367 367 368 366 367 366 365 366 367 366 366
360 358 359 358 359 359 359 359 359 358 357 356 359 359 359 358 358 361 363 363 364 364 364 367 369 368 370 371 369 369 368 369 366 367 367 366 365 364 363 364 364 365
361 361 362 362 361 361 360 359 359 360 360 360 360 360 357 358 357 357 359 361 361 362 364 366 368 368 370 371 370 368 368 368 368 366 365 365 365 366 365 363 363 364
359 359 359 359 361 361 359 359 359 360 360 361 362 360 358 358 358 357 358 359 360 362 363 363 362 363 365 367 368 368 367 365 366 366 365 365 366 364 364 366 365 363
356 356 357 358 358 358 359 359 358 359 358 359 358 359 360 361 361 360 359 358 358 360 362 360 361 362 365 358 358 364 366 363 364 367 367 366 365 365 363 363 363 363
354 354 355 355 358 358 358 359 358 358 359 359 359 359 360 361 359 358 357 357 356 356 357 356 357 359 358 342 340 343 360 363 364 365 367 367 365 365 365 362 362 363
355 354 354 354 354 354 357 357 357 358 358 359 358 357 359 358 357 358 359 357 355 355 354 354 355 359 343 340 337 336 345 360 360 361 361 362 363 362 362 362 361 361
352 353 353 354 355 355 356 355 355 355 355 356 358 359 358 359 360 358 359 358 358 358 355 355 355 346 336 336 334 332 332 346 357 359 358 358 360 361 362 362 363 363
347 347 347 348 350 352 353 355 354 353 355 356 357 357 356 358 358 360 360 361 361 361 360 358 359 344 332 330 330 328 329 337 355 356 358 358 360 360 359 360 363 363
343 343 343 343 344 347 349 348 348 349 350 352 354 354 352 354 355 355 356 357 358 358 360 357 355 331 327 326 324 325 324 335 353 354 355 357 359 360 362 362 363 362
337 338 340 342 343 344 344 343 347 348 347 350 350 352 353 352 354 355 354 354 355 355 355 356 350 324 323 321 322 324 324 348 356 357 357 357 358 359 361 363 363 362
334 335 337 338 340 340 340 342 342 343 346 349 348 351 352 352 351 353 354 354 354 354 354 355 352 330 320 318 320 322 334 357 357 357 357 357 358 359 360 360 360 361
333 333 333 335 337 337 338 341 344 345 346 349 348 348 348 348 349 349 350 351 350 351 351 350 347 331 317 317 317 319 334 354 357 356 357 357 358 359 359 360 359 356
333 335 334 336 338 338 340 340 342 342 343 344 344 345 346 346 345 344 344 345 345 345 346 347 347 335 317 316 316 316 335 355 354 355 355 356 355 356 358 358 358 356
332 334 335 336 337 339 340 341 342 342 342 341 340 341 342 342 342 341 339 339 340 341 342 345 345 339 328 314 313 315 318 345 353 351 351 352 354 354 354 356 356 357
Wind_Speed
7 6 6 6 6 5 5 6 5 6 5 5 5 5 5 5 4 5 5 4 5 5 5 4 4 4 3 3 3 2 2 3 3 2 2 3 3 3 3 2 3 2
8 7 6 6 4 4 4 5 6 6 6 5 5 5 5 5 5 5 5 5 5 5 5 5 5 4 4 4 3 3 2 3 4 2 3 4 4 3 4 4 3 2
8 8 7 8 7 8 8 6 6 6 5 6 5 4 4 5 6 5 5 5 5 5 5 4 4 4 4 4 3 4 3 3 4 3 3 4 4 4 4 3 3 3
8 8 8 8 7 8 7 6 6 5 5 5 6 5 5 4 5 6 5 5 5 5 4 4 4 4 5 4 4 4 3 3 3 2 3 3 4 4 4 3 3 3
10 8 7 7 7 6 6 6 7 6 6 5 5 5 5 4 5 5 5 5 5 5 5 5 5 5 5 4 4 4 3 4 3 3 3 4 4 4 4 4 4 5
8 7 7 7 7 7 7 7 6 6 6 6 6 5 6 6 5 5 5 5 5 5 5 5 5 5 5 4 4 4 4 4 3 3 4 4 5 4 4 4 5 5
9 8 9 8 8 7 7 6 5 5 5 5 5 6 6 6 6 6 5 5 5 5 5 4 5 4 4 4 4 4 4 4 4 4 5 5 4 5 4 4 5 6
9 8 8 7 8 7 7 6 5 5 5 4 5 6 6 6 6 6 5 5 5 5 5 5 4 5 5 5 5 5 5 4 5 5 6 6 5 5 5 5 5 6
9 9 8 9 9 8 8 8 7 6 5 5 5 5 6 6 6 6 5 6 6 5 5 5 5 5 5 5 5 6 6 6 6 6 6 6 6 6 6 5 5 5
9 9 10 10 10 8 9 8 7 6 6 5 5 5 5 5 5 5 5 6 6 6 6 6 6 6 6 6 6 7 7 7 7 7 6 6 6 6 6 5 5 6
10 10 9 10 9 7 8 8 7 7 6 6 5 5 5 4 5 5 5 5 6 6 6 6 6 6 6 6 6 6 7 7 7 7 7 7 7 6 6 6 6 6
8 7 8 8 7 7 7 6 6 6 6 6 7 6 5 5 5 5 5 6 6 6 6 6 6 6 6 7 7 7 6 7 7 7 7 7 7 7 7 6 6 6
8 7 6 6 5 5 4 4 5 6 6 6 6 6 6 6 6 6 5 6 6 6 6 6 6 6 6 7 7 7 6 7 7 7 7 7 7 8 8 7 7 7
7 6 5 5 4 5 4 4 4 4 5 5 5 6 7 7 7 7 6 6 6 6 6 6 6 6 6 6 6 6 7 7 7 8 8 8 8 8 8 8 8 8
5 5 6 5 4 4 5 5 5 4 4 5 5 6 6 7 7 7 6 6 6 6 6 6 6 6 5 6 6 7 7 8 8 8 8 8 8 9 8 8 8 8
5 5 5 6 5 4 4 4 5 5 5 5 5 6 5 5 5 5 6 6 6 6 6 6 6 5 6 8 8 6 7 7 6 7 7 7 7 8 9 9 9 9
5 5 5 6 5 4 5 4 4 4 5 5 5 5 5 4 5 6 6 6 6 5 6 5 5 5 5 8 9 10 8 7 7 7 7 7 8 8 8 9 9 9
4 5 5 5 5 5 5 5 5 4 5 5 5 6 5 5 5 4 4 4 4 4 5 5 5 2 2 6 8 9 8 8 8 7 7 7 7 8 8 8 9 9
4 5 5 4 3 5 5 6 6 5 5 4 4 4 4 5 5 5 5 4 4 4 4 3 4 6 3 1 5 7 8 8 8 8 8 8 8 8 8 8 8 8
6 7 7 6 5 5 4 3 3 3 2 2 2 3 4 4 5 4 3 3 2 2 2 2 1 8 5 4 3 3 5 7 7 8 9 9 9 9 8 8 8 7
9 8 7 6 6 6 6 6 6 5 5 4 4 3 1 2 3 4 3 4 3 3 2 2 7 10 8 5 5 4 1 6 5 6 7 8 8 8 8 9 8 8
6 6 7 7 6 6 7 7 5 5 5 5 4 3 1 3 3 2 1 1 0 1 2 2 8 11 9 8 5 5 1 3 3 4 5 6 7 7 7 7 7 8
6 6 6 5 4 5 5 6 5 5 5 3 3 2 4 3 2 3 2 0 2 2 1 1 6 9 10 10 8 6 3 1 2 3 4 5 5 4 4 5 6 6
5 5 5 5 5 7 8 6 5 3 4 5 5 4 5 5 6 6 7 7 7 7 6 6 7 10 11 11 10 9 4 2 2 2 4 4 4 4 3 3 3 6
5 5 5 5 6 6 6 7 7 6 6 6 6 4 4 4 6 7 7 7 7 7 9 7 8 9 12 11 11 11 6 3 2 4 5 5 4 4 2 2 1 1
7 7 7 7 6 7 6 6 5 6 7 6 5 3 3 5 6 6 6 6 6 8 7 7 8 7 11 12 13 13 11 4 4 4 5 6 6 6 6 4 3 3
Wind_Direction
186 188 199 203 209 212 201 200 202 201 203 203 202 200 205 205 208 212 217 215 214 215 210 213 211 214 217 218 225 234 250 261 281 252 249 262 265 259 265 275 279 278
187 188 191 199 201 204 209 211 203 207 203 207 213 201 198 198 202 211 214 223 221 223 220 217 214 218 221 220 215 228 232 240 253 230 240 252 268 268 265 270 279 288
186 185 188 195 201 203 209 205 209 212 212 214 212 214 202 199 200 199 212 221 229 228 220 224 221 221 224 224 224 230 231 241 252 254 249 268 280 276 279 281 264 256
186 188 193 200 199 194 194 193 198 208 214 207 216 214 216 201 199 199 203 208 222 228 230 226 230 226 220 222 220 233 238 251 262 271 270 276 274 280 281 279 281 276
190 186 195 198 196 192 187 193 199 197 208 212 212 205 204 204 206 206 205 205 211 223 219 228 229 233 230 229 225 238 236 245 232 236 257 275 277 269 276 281 286 284
188 183 188 194 189 188 192 195 198 197 203 200 206 199 207 203 208 211 209 214 213 218 224 226 226 229 231 229 236 251 255 252 235 227 251 267 283 283 281 287 290 291
193 189 190 192 194 188 197 193 196 201 202 211 188 201 198 199 203 205 206 212 222 221 228 225 229 234 230 231 234 239 242 251 251 237 248 256 256 268 271 274 280 287
199 193 193 191 195 190 203 195 197 197 201 197 206 200 200 203 204 205 203 205 211 215 221 228 227 228 236 232 234 238 245 239 235 236 247 257 261 263 262 265 276 281
194 194 195 199 206 204 211 209 201 201 190 205 218 207 200 210 204 208 198 201 210 210 212 220 221 231 234 237 241 242 247 252 250 243 249 258 257 257 261 261 262 269
191 195 199 202 208 211 215 218 213 200 190 206 218 226 211 208 215 214 203 201 211 208 210 218 217 224 230 231 233 239 243 242 243 243 247 250 255 260 262 257 262 269
197 196 198 204 210 213 216 219 218 214 198 203 213 225 231 225 212 217 215 211 220 216 216 215 220 223 226 235 236 236 238 245 247 244 247 248 252 253 255 258 261 263
205 205 204 206 211 215 214 218 224 226 216 204 211 215 219 235 237 231 226 226 230 233 229 224 222 222 223 233 240 239 237 243 246 248 252 254 255 255 251 248 254 259
194 199 199 196 196 215 222 217 222 227 229 227 215 217 217 228 231 236 234 244 244 245 246 238 230 228 223 226 234 238 239 240 248 248 249 254 257 259 260 256 252 252
193 187 173 172 177 173 191 209 223 233 236 234 228 224 228 225 231 232 233 238 245 250 249 246 242 240 232 230 233 240 240 240 241 248 254 254 257 256 259 262 260 258
174 179 185 187 172 169 173 177 189 203 214 229 228 234 234 231 229 232 234 240 243 242 250 251 251 246 240 231 229 233 239 248 247 246 250 255 256 262 261 257 259 260
159 169 183 192 187 181 174 168 177 185 195 201 213 225 227 228 234 233 235 235 237 235 237 243 244 246 227 222 232 245 245 253 253 252 256 258 258 263 265 262 261 262
167 175 185 193 183 181 186 192 188 189 182 183 194 205 214 202 217 222 228 229 228 233 237 240 246 246 219 213 221 235 254 262 260 259 255 252 254 255 263 268 270 266
173 166 173 182 194 194 191 194 196 199 200 194 198 197 196 216 216 205 206 213 210 215 226 240 254 254 216 220 221 222 224 249 261 264 261 256 256 259 260 267 271 273
107 120 123 135 164 178 179 181 192 193 198 197 197 206 205 209 209 206 197 200 194 191 199 208 240 84 50 294 246 230 219 229 256 258 261 261 263 260 263 264 266 269
77 84 84 84 89 94 94 114 141 132 108 117 143 183 214 224 223 217 204 202 212 204 193 169 153 68 41 38 336 263 223 211 242 249 251 258 259 259 262 264 262 263
65 61 62 54 68 80 77 74 77 83 86 84 82 90 118 253 256 238 242 242 233 243 218 176 73 37 43 46 35 343 292 207 235 240 246 248 247 249 251 256 260 262
57 67 66 64 65 62 70 72 73 79 87 87 86 82 144 207 194 213 206 203 221 275 239 197 71 41 39 37 27 39 241 242 229 232 243 246 245 248 253 257 263 265
45 57 68 55 44 61 64 59 53 52 52 57 100 147 165 141 116 99 100 94 79 61 77 254 67 33 32 34 33 6 293 255 284 273 268 267 264 258 253 254 260 269
37 56 57 50 50 58 62 67 78 81 73 62 57 53 51 63 82 85 71 67 69 67 60 72 61 41 38 38 30 17 338 336 310 288 280 286 283 278 276 268 271 282
28 40 52 57 60 53 57 68 65 62 68 68 68 44 38 52 71 74 68 57 56 64 63 66 66 50 38 37 36 26 7 360 340 303 287 285 299 295 291 288 303 299
34 37 41 38 46 55 53 52 49 56 59 67 75 88 85 75 74 71 71 61 52 56 57 56 69 59 37 28 24 21 12 5 39 3 341 325 305 301 292 288 299 289